Location: Baia Mare
(47.6567°N, 23.5850°E)
Time: 16:51:15
(UTC+03:00)

ISS - Pass Details

Date: 10 October 2018
Orbit: 403 x 408 km, 51.6° (Epoch: 16 October)

Event Time Altitude Azimuth Distance (km) Brightness Sun altitude
Rises 20:20:20 0° 289° (WNW) 2,338 1.7 -16.4°
Reaches altitude 10° 20:22:41 10° 274° (W) 1,473 0.3 -16.8°
Maximum altitude 20:25:21 23° 220° (SW) 926 -1.7 -17.2°
Enters shadow 20:27:17 14° 175° (S) 1,238 -1.5 -17.6°
